Tracking 29892 objects as of 21-Nov-2024
HD Live streaming from Space Station
objects crossing your sky now

BLOCK DM-SL R/B

Track BLOCK DM-SL R/B now!


NORAD ID: 33377
Int'l Code: 2008-045B
Perigee: 2,807.1 km
Apogee: 35,506.8 km
Inclination: 0.8 °
Period: 676.5 minutes
Semi major axis: 25527 km
RCS: 19.8865 m2 (large)
Launch date: September 24, 2008
Source: Sea Launch (SEAL)
Launch site: SEA LAUNCH (SEAL)

Note: This is a ROCKET BODY
Your satellite tracking list
Your tracking list is empty




NASA's NSSDC Master Catalog

Two Line Element Set (TLE):
1 33377U 08045B   24325.52220016 -.00000130  00000-0  00000-0 0  9999
2 33377   0.7924 297.1002 6404688  53.8283   1.6517  2.12852851125689
Source of the keplerian elements: AFSPC